Location: Newark
(44.2003°N, 3.2583°E)
Time: 00:47:19
(UTC+00:00)

Vanguard 1 - Visible Passes

Search period start: 16 October 2019 00:00
Search period end: 26 October 2019 00:00
Orbit: 653 x 3830 km, 34.3° (Epoch: 14 October)

Date Brightness Start Highest point End Pass type
(mag) Time Alt. Az. Time Alt. Az. Time Alt. Az.
16 Oct 13.5 02:23:23 28° S 02:23:23 28° S 02:34:21 10° SSE visible
16 Oct 12.0 19:16:29 10° SW 19:25:32 44° SSE 19:29:19 38° ESE visible
16 Oct 12.4 21:35:19 10° WSW 21:42:01 41° SW 21:42:01 41° SW visible
17 Oct 13.8 00:31:01 16° SE 00:31:01 16° SE 00:34:00 10° SE visible
17 Oct 13.6 02:43:47 23° SSW 02:43:47 23° SSW 02:53:23 10° S visible
17 Oct 12.3 17:20:56 10° S 17:26:36 20° SE 17:34:41 10° E visible
17 Oct 11.9 19:36:56 10° SW 19:46:17 49° SSE 19:48:54 45° SE visible
17 Oct 12.7 21:56:12 10° WSW 22:01:35 34° WSW 22:01:35 34° WSW visible
18 Oct 13.9 00:51:20 16° SSE 00:51:20 16° SSE 00:54:24 10° SE visible
18 Oct 13.7 03:04:06 18° SSW 03:04:06 18° SSW 03:11:33 10° S visible
18 Oct 12.1 17:40:27 10° SSW 17:46:53 26° SE 17:55:46 12° E visible
18 Oct 11.8 19:57:31 10° WSW 20:07:10 53° SSE 20:08:27 52° SSE visible
18 Oct 12.9 22:17:08 10° W 22:21:08 26° WSW 22:21:08 26° WSW visible
19 Oct 14.0 01:11:35 15° SSE 01:11:35 15° SSE 01:14:25 10° SSE visible
19 Oct 13.9 03:24:20 13° SSW 03:24:20 13° SSW 03:28:06 10° SSW visible
19 Oct 11.9 18:00:24 10° SSW 18:07:19 33° SSE 18:15:18 17° E visible
19 Oct 11.8 20:18:12 10° WSW 20:27:59 55° S 20:27:59 55° S visible
19 Oct 13.2 22:38:08 10° W 22:40:40 20° W 22:40:40 20° W visible
20 Oct 14.0 01:31:45 14° SSE 01:31:45 14° SSE 01:33:58 10° SSE visible
20 Oct 11.7 18:20:37 10° SW 18:27:53 39° SSE 18:34:50 23° ESE visible
20 Oct 11.9 20:38:59 10° WSW 20:47:31 53° SSW 20:47:31 53° SSW visible
20 Oct 13.4 22:59:13 10° W 23:00:12 13° W 23:00:12 13° W visible
21 Oct 14.0 01:51:49 11° S 01:51:49 11° S 01:52:51 10° S visible
21 Oct 11.6 18:41:03 10° SW 18:48:35 44° SSE 18:54:21 29° ESE visible
21 Oct 12.1 20:59:49 10° WSW 21:07:02 47° SW 21:07:02 47° SW visible
21 Oct13.623:59:05SE23:59:05SE23:19:44Wvisible
22 Oct 11.6 19:01:37 10° WSW 19:09:24 48° SSE 19:13:53 36° ESE visible
22 Oct 12.3 21:20:42 10° W 21:26:34 38° WSW 21:26:34 38° WSW visible
23 Oct13.800:18:59SSE00:18:59SSE23:39:16Wvisible
23 Oct 11.6 19:22:16 10° WSW 19:30:18 51° S 19:33:25 43° SE visible
23 Oct 12.6 21:41:40 10° W 21:46:07 29° WSW 21:46:07 29° WSW visible
24 Oct 11.6 17:24:58 10° SW 17:30:46 34° SSE 17:40:15 10° E visible
24 Oct 11.6 19:43:01 10° WSW 19:51:16 51° S 19:52:58 48° SSE visible
24 Oct 12.9 22:02:43 10° W 22:05:39 21° WSW 22:05:39 21° WSW visible
25 Oct 11.4 17:45:22 10° SW 17:51:26 39° SSE 17:59:50 15° ESE visible
25 Oct 11.7 20:03:48 10° WSW 20:12:16 49° S 20:12:31 49° S visible
25 Oct 13.2 22:23:54 10° W 22:25:13 15° WSW 22:25:13 15° WSW visible
